Temp
52 52 52 52 52 52 51 51 52 51 51 51 51 51 52 52 52 43 39 42 41 33 35 38 39 33 31 31 25 31 31 34 31 28 32 32 31 30 28 33 27 26 21 28 29 26 21 42 40 33 38 40 42 43
51 51 51 51 51 51 51 51 51 51 51 50 51 51 52 52 52 50 37 42 44 37 34 38 42 44 42 41 33 32 32 33 35 28 29 29 28 30 29 24 33 22 30 26 31 31 41 43 41 44 43 39 43 43
51 52 51 51 51 51 51 51 51 51 50 50 50 51 51 51 52 50 41 44 42 36 33 31 37 42 43 44 44 31 32 37 35 41 36 33 32 36 28 27 26 36 37 34 34 38 37 42 44 42 42 43 44 45
51 52 51 51 51 51 51 51 51 51 50 50 50 50 51 51 52 51 43 44 42 38 30 33 45 41 51 48 45 44 44 39 38 42 38 36 33 39 35 34 34 38 39 36 36 39 38 41 43 44 42 45 45 46
50 51 50 51 51 51 51 51 50 50 50 50 50 51 51 51 51 48 45 43 46 34 31 31 39 42 44 44 46 42 42 37 38 39 38 36 39 38 40 39 36 41 38 36 35 42 41 41 43 46 42 43 44 44
50 50 50 51 51 51 50 50 50 50 50 50 51 51 51 51 50 40 38 40 41 44 35 31 37 39 43 45 43 39 40 37 41 40 39 41 45 39 33 33 41 45 46 45 41 45 44 45 46 46 44 44 45 45
50 49 50 51 50 50 50 50 50 50 49 50 50 50 50 50 46 37 37 42 47 45 36 34 33 39 42 41 39 39 40 42 41 40 39 40 41 41 35 33 40 44 46 47 47 46 42 45 42 46 45 45 46 46
49 49 49 50 49 49 50 50 50 48 48 50 50 50 50 50 48 42 46 48 48 41 40 33 32 34 41 35 34 39 41 42 42 42 42 39 41 40 34 36 39 43 48 48 46 47 44 45 46 46 46 45 44 42
49 49 49 49 49 49 50 50 48 47 48 49 50 51 46 41 40 44 52 50 45 42 33 32 31 26 38 35 35 36 42 38 43 39 39 41 37 32 35 35 37 41 43 45 47 46 46 44 45 44 43 44 42 42
48 49 49 48 49 49 50 48 46 47 48 49 45 41 40 44 52 52 46 41 40 40 39 34 40 31 34 33 33 33 40 38 35 39 43 35 35 39 39 39 40 42 43 46 43 42 43 42 43 43 43 44 43 41
49 49 48 48 49 50 49 46 46 46 48 41 38 39 40 47 44 37 33 37 36 34 37 37 36 31 36 30 32 39 37 37 34 37 37 33 30 35 39 39 41 43 44 46 47 46 45 44 43 43 43 44 42 42
49 49 48 48 49 50 47 46 46 43 40 40 39 40 39 39 37 33 31 37 36 33 38 33 32 34 33 35 37 39 35 38 33 37 36 28 33 37 37 37 39 41 46 47 47 45 45 46 46 44 44 43 42 42
49 48 48 48 49 48 46 46 46 47 46 42 38 37 36 35 26 31 31 31 30 32 33 32 31 30 31 38 32 35 33 32 39 32 31 32 35 37 37 37 39 43 46 48 47 49 48 47 47 45 43 43 43 42
48 48 48 48 49 47 46 46 47 46 40 37 37 28 32 31 32 33 32 32 36 34 34 31 29 29 29 29 34 32 35 34 24 23 25 32 34 35 36 37 39 41 46 47 47 47 47 46 45 45 45 44 43 42
48 48 48 48 47 46 46 46 48 42 38 37 37 28 33 37 36 37 36 35 36 35 32 30 30 30 31 31 32 32 26 21 24 21 30 33 34 35 34 36 38 41 46 47 45 46 47 46 44 43 44 45 44 43
48 48 46 48 47 46 46 47 44 41 39 38 37 35 36 34 34 35 34 33 35 33 31 31 31 30 30 26 22 25 17 20 23 30 33 34 35 34 33 36 39 43 47 46 45 46 46 46 44 44 45 44 44 43
47 42 47 47 46 46 47 42 41 38 38 39 36 38 35 34 35 34 35 35 33 33 30 30 29 26 31 21 22 27 18 25 32 32 34 36 35 35 36 37 40 44 48 47 46 45 45 46 46 45 42 42 44 44
41 44 47 46 45 45 42 41 40 39 36 38 35 36 35 36 35 34 35 33 33 31 31 30 30 26 25 14 19 21 32 34 33 35 35 37 38 38 38 36 40 42 42 43 46 46 44 44 43 42 43 43 44 42
43 45 46 46 45 42 39 39 39 35 38 38 38 37 36 35 35 36 34 33 33 33 32 29 27 20 20 23 27 32 30 31 33 35 37 39 39 39 38 38 39 39 40 41 42 42 45 45 43 43 43 44 42 41
46 45 46 47 46 40 39 38 42 37 35 38 39 36 35 35 35 34 32 31 30 30 29 27 26 26 26 30 35 31 33 37 36 33 34 36 39 39 38 38 37 38 38 39 40 40 42 42 44 45 44 43 43 41
44 45 46 44 41 41 38 38 38 38 37 36 38 37 32 34 33 31 30 30 29 26 25 27 28 31 37 36 33 36 38 36 33 35 33 33 35 37 38 38 39 38 36 36 36 37 39 39 41 43 44 46 45 43
42 46 41 43 40 40 36 40 38 39 37 36 36 37 32 31 31 30 30 28 27 26 27 30 33 37 32 33 39 38 33 33 32 38 37 37 33 34 35 37 37 35 35 35 35 36 37 39 40 42 44 45 43 44
45 44 41 41 37 33 33 42 37 37 34 34 35 34 32 31 30 33 27 26 24 29 32 33 37 38 33 39 39 34 32 31 29 32 35 36 35 35 35 37 37 35 33 34 36 36 36 36 39 40 43 44 44 42
46 39 36 35 34 30 39 36 36 35 34 31 33 32 32 30 31 28 24 23 25 29 32 35 34 33 33 37 29 28 28 28 27 30 33 32 31 32 33 35 37 37 35 36 35 35 36 36 36 39 41 42 43 42
33 33 32 26 35 34 34 34 34 32 33 33 33 30 30 31 26 26 26 22 26 27 30 33 33 33 28 27 27 27 29 26 26 26 30 30 28 30 30 33 35 37 36 33 33 33 34 35 35 36 37 39 39 40
26 32 29 32 32 33 34 32 32 32 33 33 33 32 30 29 29 28 27 25 24 27 28 30 28 27 26 27 26 26 27 26 26 26 26 27 27 26 26 27 28 32 36 35 33 32 32 33 33 33 34 35 35 39
23 27 32 39 37 37 33 35 35 32 33 32 31 30 29 24 26 27 28 29 28 30 32 31 30 29 27 26 27 28 28 28 28 29 28 27 27 28 27 26 27 31 35 35 33 32 30 30 30 31 32 34 36 38
31 34 30 32 32 33 33 33 34 34 34 35 33 32 30 28 26 28 30 32 33 33 32 32 32 31 29 29 28 28 28 28 30 29 28 29 30 29 29 29 31 32 34 33 32 32 30 29 29 31 32 33 35 38
31 33 35 31 33 31 34 35 35 37 39 37 32 30 29 31 29 27 30 32 33 32 29 28 28 31 29 28 28 27 28 26 28 26 24 21 22 25 28 28 29 32 32 31 30 30 29 29 30 31 32 33 34 34
31 35 31 32 32 32 36 38 36 36 36 35 34 32 31 28 30 32 32 32 31 28 29 31 28 30 26 26 25 27 27 25 23 22 19 20 21 25 26 26 27 29 28 28 27 27 27 28 28 29 30 30 30 30
35 34 33 32 34 37 35 37 37 36 34 32 33 30 28 28 30 32 27 27 30 31 30 27 26 27 27 26 26 25 24 26 28 27 24 25 26 26 26 26 25 26 27 26 25 24 24 24 25 24 24 25 26 27
34 33 33 33 30 35 37 34 31 30 30 29 28 30 27 26 24 26 28 29 27 26 25 26 26 26 27 27 27 26 25 26 26 27 27 26 25 26 24 24 24 26 25 24 23 22 22 21 21 21 22 23 24 24
32 34 35 34 31 32 34 32 28 28 29 28 28 29 26 24 19 25 30 27 26 27 25 26 26 27 29 29 28 27 26 27 26 25 24 24 23 24 24 24 26 26 23 21 20 19 17 16 17 16 17 17 19 21
MSLP
1021.52 1021.63 1021.74 1021.78 1021.95 1021.96 1022.00 1022.11 1021.84 1021.98 1021.92 1021.91 1021.89 1021.80 1021.57 1021.45 1021.18 1021.47 1021.66 1021.51 1021.50 1021.01 1019.47 1018.95 1018.76 1018.54 1018.46 1018.32 1018.57 1017.47 1016.95 1016.57 1015.95 1015.45 1014.99 1014.50 1013.91 1013.36 1013.14 1012.46 1012.33 1012.53 1012.47 1011.83 1010.98 1010.08 1009.14 1008.30 1008.22 1008.27 1007.43 1006.62 1006.28 1005.35
1020.74 1021.00 1021.17 1021.28 1021.38 1021.52 1021.52 1021.69 1021.49 1021.58 1021.61 1021.67 1021.70 1021.58 1021.38 1021.19 1021.05 1021.04 1021.57 1021.27 1021.06 1021.10 1019.42 1018.65 1017.91 1017.55 1017.26 1017.05 1017.62 1017.52 1017.26 1016.87 1016.41 1015.99 1015.38 1014.97 1014.42 1013.82 1013.55 1013.19 1012.39 1012.27 1011.69 1011.38 1011.07 1008.96 1007.90 1007.84 1007.77 1007.37 1006.63 1006.35 1005.52 1004.75
1019.83 1020.21 1020.52 1020.89 1020.98 1021.04 1021.08 1021.16 1021.13 1021.20 1021.21 1021.23 1021.31 1021.31 1021.17 1020.92 1020.75 1020.78 1021.08 1020.77 1020.82 1020.43 1019.04 1018.27 1016.70 1015.91 1016.15 1016.40 1016.68 1017.38 1016.84 1016.04 1016.08 1015.36 1015.33 1015.07 1014.60 1013.97 1013.72 1013.04 1012.51 1011.38 1011.04 1010.82 1010.32 1008.33 1008.28 1008.11 1007.28 1006.70 1006.22 1005.71 1004.97 1004.27
1019.07 1019.47 1019.79 1020.22 1020.42 1020.46 1020.68 1020.62 1020.70 1020.89 1020.85 1020.85 1020.93 1020.97 1020.86 1020.54 1020.42 1020.49 1020.72 1020.50 1020.54 1020.54 1020.01 1017.24 1015.85 1015.39 1015.05 1015.17 1015.63 1015.84 1015.58 1015.63 1015.52 1015.22 1014.89 1014.61 1014.28 1013.86 1013.17 1012.65 1012.21 1011.23 1010.82 1010.02 1009.06 1008.33 1008.13 1007.47 1006.76 1005.97 1005.55 1005.09 1004.24 1003.40
1018.33 1018.89 1019.19 1019.52 1019.66 1019.87 1020.23 1020.04 1020.20 1020.38 1020.51 1020.53 1020.47 1020.52 1020.44 1020.16 1020.02 1020.16 1020.18 1020.19 1019.96 1020.48 1019.82 1017.91 1016.09 1014.81 1014.70 1014.70 1014.68 1014.82 1015.12 1015.57 1015.56 1014.81 1014.20 1013.73 1013.26 1013.04 1012.38 1011.97 1011.09 1010.44 1009.73 1009.07 1008.09 1007.87 1007.66 1007.06 1006.23 1005.61 1005.14 1004.44 1003.64 1002.85
1017.36 1018.05 1018.62 1018.77 1018.92 1019.32 1019.64 1019.55 1019.57 1019.74 1019.95 1020.10 1020.09 1020.05 1019.97 1019.92 1019.79 1020.22 1020.02 1020.02 1019.97 1019.96 1019.84 1018.60 1016.59 1015.19 1014.33 1013.86 1013.70 1013.78 1014.32 1014.98 1014.92 1014.10 1013.46 1012.77 1012.44 1012.64 1012.32 1011.64 1009.93 1009.27 1008.99 1008.63 1008.04 1007.27 1006.92 1006.35 1005.73 1005.56 1004.85 1003.94 1003.17 1002.63
1016.51 1017.14 1017.88 1018.17 1018.49 1018.86 1019.08 1018.98 1019.05 1019.26 1019.52 1019.61 1019.82 1019.72 1019.62 1019.59 1019.84 1020.04 1019.68 1019.43 1019.51 1019.80 1019.53 1018.37 1017.25 1015.54 1014.60 1014.07 1013.84 1013.83 1013.95 1013.95 1013.93 1013.70 1012.94 1012.51 1012.21 1012.35 1012.30 1011.75 1011.05 1009.76 1008.75 1007.82 1007.40 1007.03 1006.61 1006.14 1005.64 1005.16 1004.66 1003.74 1002.93 1002.28
1015.34 1016.18 1016.80 1017.44 1017.97 1018.30 1018.46 1018.45 1018.64 1018.89 1019.06 1019.24 1019.23 1019.05 1019.06 1019.13 1019.32 1019.37 1018.57 1018.66 1019.32 1019.52 1019.20 1018.62 1017.57 1016.44 1015.37 1015.00 1014.48 1013.85 1013.65 1013.37 1012.96 1012.50 1012.19 1012.16 1012.15 1012.51 1012.67 1012.88 1011.72 1010.18 1008.71 1007.92 1007.64 1007.19 1006.85 1006.37 1005.48 1004.95 1004.37 1003.53 1002.77 1002.24
1014.45 1015.32 1015.96 1016.58 1017.26 1017.58 1017.77 1017.99 1018.28 1018.59 1018.65 1018.70 1018.56 1018.29 1018.55 1019.03 1018.72 1018.20 1018.07 1018.22 1018.96 1019.40 1018.91 1018.66 1018.27 1017.45 1016.00 1015.52 1014.78 1014.02 1013.31 1012.91 1012.46 1012.24 1011.97 1012.19 1012.77 1014.01 1014.50 1013.43 1011.92 1010.23 1009.58 1008.51 1007.66 1007.41 1006.82 1006.24 1005.67 1005.23 1004.41 1003.68 1003.10 1002.61
1013.62 1014.43 1015.28 1016.11 1016.60 1016.94 1017.22 1017.63 1018.10 1018.32 1018.38 1018.20 1018.22 1018.47 1018.24 1017.99 1017.69 1017.86 1018.40 1018.66 1018.73 1018.67 1018.74 1018.41 1017.94 1017.74 1017.01 1016.29 1015.23 1014.46 1013.22 1012.67 1012.21 1011.91 1011.76 1012.31 1013.50 1014.59 1014.17 1013.06 1011.89 1010.71 1009.77 1008.84 1008.00 1007.31 1006.71 1006.16 1005.74 1005.26 1004.71 1004.07 1003.62 1003.17
1012.81 1013.71 1014.66 1015.56 1016.09 1016.37 1016.73 1017.40 1017.95 1018.01 1017.91 1018.01 1018.11 1018.23 1018.41 1017.98 1017.98 1018.12 1018.19 1018.14 1018.38 1018.40 1018.27 1018.01 1017.81 1017.59 1016.70 1016.59 1015.75 1014.45 1013.54 1012.77 1012.30 1012.25 1012.10 1012.93 1014.02 1014.12 1013.75 1012.84 1011.74 1010.71 1009.71 1008.74 1008.12 1007.70 1007.18 1006.66 1006.10 1005.50 1004.75 1004.31 1004.00 1003.66
1012.04 1013.07 1014.07 1014.95 1015.53 1015.85 1016.36 1017.17 1017.61 1017.90 1017.96 1018.03 1018.07 1018.31 1018.40 1018.27 1018.07 1018.26 1017.96 1017.67 1017.76 1017.73 1017.62 1017.65 1017.25 1017.11 1016.60 1016.27 1015.64 1014.42 1013.87 1013.21 1012.54 1013.10 1012.86 1014.27 1015.08 1015.07 1014.34 1013.28 1011.95 1010.72 1009.41 1008.60 1008.21 1008.04 1007.43 1006.81 1006.31 1005.94 1005.36 1004.84 1004.42 1004.02
1011.44 1012.52 1013.56 1014.39 1014.97 1015.40 1016.26 1016.85 1017.27 1017.48 1017.73 1018.02 1018.04 1017.95 1017.87 1017.98 1017.92 1017.56 1017.33 1017.29 1017.35 1017.30 1017.36 1017.29 1017.50 1017.18 1016.60 1016.44 1016.07 1015.46 1014.81 1014.43 1014.18 1014.31 1015.09 1015.88 1016.08 1015.68 1014.88 1013.81 1012.21 1010.63 1009.36 1008.55 1008.30 1007.88 1007.51 1007.17 1006.95 1006.51 1006.06 1005.48 1004.83 1004.19
1011.12 1012.21 1013.17 1013.94 1014.49 1015.27 1016.04 1016.61 1016.94 1017.29 1017.69 1017.62 1017.34 1017.37 1017.24 1017.07 1016.79 1016.48 1016.54 1016.74 1016.74 1016.95 1017.07 1017.40 1017.61 1017.66 1017.34 1017.05 1016.75 1016.32 1015.90 1015.44 1015.98 1016.73 1016.93 1016.82 1016.65 1016.04 1015.21 1014.23 1012.95 1011.29 1009.70 1008.75 1008.27 1008.15 1007.86 1007.61 1007.56 1007.30 1006.53 1006.05 1005.40 1004.79
1010.96 1012.12 1013.00 1013.59 1014.22 1015.14 1015.88 1016.38 1016.72 1017.21 1017.31 1016.90 1016.53 1016.37 1016.41 1015.99 1016.10 1016.08 1016.29 1016.55 1016.60 1016.84 1017.13 1017.45 1017.69 1017.74 1017.86 1017.85 1017.97 1017.70 1017.41 1017.92 1018.22 1018.52 1018.13 1017.91 1017.27 1016.50 1015.51 1014.42 1013.28 1011.97 1010.38 1009.24 1008.74 1008.57 1008.44 1008.21 1007.93 1007.65 1007.23 1006.74 1006.06 1005.51
1011.08 1012.28 1012.68 1013.25 1014.21 1015.06 1015.81 1016.30 1016.71 1016.99 1016.79 1016.29 1016.01 1015.73 1015.87 1016.11 1016.50 1016.48 1016.69 1016.86 1016.79 1017.01 1017.27 1017.49 1017.89 1018.22 1018.81 1019.03 1019.19 1019.55 1019.51 1019.83 1019.52 1019.11 1018.83 1018.36 1017.43 1016.64 1015.64 1014.62 1013.50 1012.25 1010.92 1009.82 1009.18 1008.96 1008.71 1008.46 1008.41 1008.14 1007.85 1007.56 1007.24 1006.65
1011.15 1011.83 1012.34 1013.26 1014.27 1015.19 1015.79 1016.22 1016.50 1016.35 1015.81 1015.54 1015.30 1015.14 1015.54 1015.97 1016.30 1016.67 1016.81 1016.90 1016.96 1017.17 1017.93 1018.04 1018.54 1019.32 1019.49 1019.88 1020.53 1020.48 1020.55 1020.41 1019.86 1019.46 1019.08 1018.49 1017.71 1016.73 1015.84 1014.66 1013.37 1012.10 1011.03 1010.52 1009.58 1008.95 1008.90 1008.82 1008.48 1008.09 1008.01 1007.99 1007.88 1007.58
1011.11 1011.65 1012.35 1013.32 1014.31 1015.23 1015.81 1015.96 1015.80 1015.43 1015.20 1014.92 1014.96 1015.11 1015.55 1015.80 1016.29 1016.76 1016.92 1017.05 1017.19 1017.61 1018.08 1018.61 1018.97 1019.81 1020.43 1020.75 1021.05 1020.90 1020.57 1020.43 1019.99 1019.51 1019.08 1018.40 1017.78 1017.10 1016.39 1015.44 1014.17 1013.09 1012.17 1011.50 1010.72 1010.01 1009.40 1009.08 1008.99 1008.98 1008.64 1008.52 1008.33 1008.24
1010.78 1011.60 1012.55 1013.16 1013.83 1014.34 1014.77 1015.27 1015.26 1014.83 1014.47 1014.49 1014.69 1015.14 1015.59 1016.23 1016.69 1016.95 1017.20 1017.35 1017.48 1017.76 1018.34 1019.05 1019.68 1020.48 1020.87 1020.95 1020.99 1020.88 1020.80 1020.40 1019.84 1019.26 1018.83 1018.49 1018.09 1017.53 1016.95 1016.01 1014.98 1013.97 1013.11 1012.54 1011.80 1011.21 1010.41 1009.97 1009.79 1009.56 1009.36 1009.02 1008.95 1008.84
1011.22 1012.12 1012.75 1013.36 1013.77 1013.94 1014.19 1014.32 1014.22 1014.21 1014.17 1014.29 1014.74 1015.48 1015.97 1016.52 1017.12 1017.52 1017.74 1017.98 1018.24 1018.67 1019.39 1019.81 1020.10 1020.31 1020.65 1020.89 1020.90 1020.93 1020.56 1020.19 1019.89 1019.26 1018.92 1018.64 1018.36 1017.89 1017.29 1016.70 1016.05 1015.35 1014.46 1013.64 1012.92 1012.36 1011.64 1011.01 1010.77 1010.21 1009.94 1009.72 1009.56 1009.59
1012.25 1013.11 1013.71 1013.91 1014.03 1014.09 1014.05 1013.72 1013.72 1013.60 1013.76 1014.26 1014.82 1015.30 1016.43 1016.88 1017.48 1017.88 1018.38 1018.56 1019.11 1019.88 1020.20 1020.10 1020.09 1020.29 1020.37 1020.58 1020.69 1020.68 1020.44 1020.31 1020.19 1019.88 1019.55 1018.96 1018.59 1018.22 1017.72 1017.18 1016.69 1016.17 1015.61 1015.04 1014.32 1013.69 1013.25 1012.82 1012.17 1011.48 1010.59 1010.04 1009.93 1010.08
1012.48 1013.01 1013.75 1014.15 1014.11 1014.05 1013.97 1013.36 1013.30 1013.37 1013.78 1014.22 1014.76 1015.22 1016.31 1017.15 1017.57 1017.97 1018.45 1019.21 1019.90 1020.14 1020.04 1019.93 1020.02 1020.12 1020.40 1020.50 1020.46 1020.67 1020.78 1020.63 1020.42 1020.09 1019.82 1019.53 1019.03 1018.56 1018.20 1017.73 1017.19 1016.89 1016.70 1016.38 1015.78 1014.96 1014.27 1013.73 1013.12 1012.33 1011.41 1010.85 1010.60 1010.49
1012.48 1012.87 1013.49 1013.86 1014.02 1013.91 1013.50 1012.99 1013.20 1013.39 1013.78 1014.46 1014.76 1015.45 1016.30 1016.89 1017.39 1017.88 1018.99 1019.73 1019.98 1019.77 1019.64 1019.67 1019.80 1020.03 1020.26 1020.31 1020.54 1020.96 1021.06 1021.08 1020.95 1020.68 1020.37 1020.07 1019.74 1019.27 1018.74 1018.12 1017.76 1017.46 1017.26 1017.03 1016.53 1015.83 1015.19 1014.43 1013.77 1013.02 1012.08 1011.28 1010.97 1011.05
1012.33 1012.97 1013.22 1013.35 1013.47 1013.46 1013.08 1013.09 1013.09 1013.32 1013.66 1014.24 1014.65 1015.39 1016.10 1016.76 1017.52 1018.10 1019.17 1019.81 1019.82 1019.66 1019.62 1019.66 1019.81 1020.13 1020.39 1020.69 1021.30 1021.52 1021.61 1021.53 1021.32 1021.09 1020.82 1020.68 1020.33 1019.73 1019.34 1018.89 1018.43 1018.10 1018.03 1017.55 1017.03 1016.46 1015.72 1015.09 1014.47 1013.65 1012.99 1012.18 1011.74 1011.42
1012.72 1013.05 1013.14 1013.13 1013.00 1013.05 1012.90 1012.92 1013.00 1013.13 1013.39 1013.81 1014.31 1015.16 1015.81 1016.49 1017.39 1018.28 1018.91 1019.37 1019.67 1019.70 1019.72 1019.69 1019.91 1020.13 1020.81 1021.40 1021.81 1021.95 1021.89 1021.92 1021.85 1021.77 1021.57 1021.33 1021.15 1020.48 1019.92 1019.53 1019.03 1018.68 1018.54 1017.97 1017.33 1016.82 1016.35 1015.73 1015.09 1014.55 1013.92 1013.28 1012.75 1012.16
1012.55 1012.66 1012.75 1012.49 1012.62 1012.52 1012.32 1012.55 1012.63 1012.79 1013.06 1013.51 1014.06 1014.70 1015.40 1016.31 1017.17 1017.63 1017.90 1018.17 1018.77 1019.08 1019.40 1019.66 1020.16 1020.75 1021.25 1021.47 1022.05 1022.24 1022.31 1022.14 1022.08 1022.08 1022.09 1021.85 1021.62 1021.41 1020.95 1020.34 1019.53 1018.95 1018.84 1018.61 1018.07 1017.43 1016.99 1016.49 1015.85 1015.21 1014.55 1013.86 1013.28 1012.66
1012.65 1012.54 1012.39 1012.12 1012.01 1011.96 1012.12 1012.04 1012.14 1012.37 1012.69 1013.13 1013.91 1014.75 1015.34 1016.31 1016.83 1017.09 1017.42 1017.73 1018.04 1018.38 1018.76 1019.30 1020.00 1020.50 1021.14 1021.76 1022.12 1022.24 1022.28 1022.18 1022.10 1022.12 1022.16 1022.08 1021.94 1021.83 1021.71 1021.30 1020.55 1019.92 1019.24 1018.79 1018.45 1018.13 1017.64 1016.98 1016.37 1015.67 1014.91 1014.22 1013.54 1012.90
1012.42 1012.20 1012.11 1012.08 1012.03 1011.97 1011.92 1011.94 1011.98 1012.08 1012.27 1012.66 1013.48 1014.55 1015.32 1016.07 1016.84 1017.25 1017.31 1017.44 1017.63 1018.23 1019.01 1019.66 1020.17 1020.57 1021.22 1021.73 1022.20 1022.44 1022.46 1022.30 1022.15 1022.09 1022.10 1022.07 1021.91 1021.81 1021.67 1021.37 1020.91 1020.32 1019.65 1019.21 1018.89 1018.43 1018.02 1017.41 1016.80 1016.05 1015.30 1014.54 1013.80 1013.08
1012.30 1012.11 1012.06 1012.10 1012.00 1011.92 1011.74 1011.63 1011.66 1011.78 1011.97 1012.49 1013.67 1014.98 1016.08 1016.70 1017.45 1017.51 1017.58 1017.71 1018.12 1018.71 1019.65 1020.31 1020.95 1021.19 1021.80 1022.28 1022.57 1022.72 1022.76 1022.81 1022.83 1022.87 1022.89 1022.85 1022.54 1022.04 1021.69 1021.33 1020.91 1020.39 1019.99 1019.44 1019.03 1018.73 1018.31 1017.66 1016.93 1016.09 1015.34 1014.67 1014.06 1013.39
1012.12 1012.02 1012.04 1011.89 1011.79 1011.65 1011.50 1011.44 1012.05 1012.52 1012.79 1013.30 1014.20 1015.61 1016.78 1017.78 1018.08 1017.96 1018.01 1018.23 1018.77 1019.40 1019.93 1020.28 1020.93 1021.38 1022.12 1022.53 1023.02 1023.26 1023.33 1023.33 1023.36 1023.46 1023.52 1023.48 1023.33 1022.85 1022.31 1021.79 1021.26 1020.75 1020.35 1019.95 1019.42 1018.81 1018.33 1017.80 1017.12 1016.38 1015.64 1014.99 1014.43 1013.73
1011.65 1011.81 1011.76 1011.62 1011.50 1011.42 1011.82 1012.17 1012.72 1013.46 1013.91 1014.52 1015.04 1015.99 1017.07 1018.09 1018.60 1018.95 1019.03 1019.14 1019.34 1019.79 1020.39 1021.12 1021.58 1021.82 1022.21 1022.59 1022.91 1023.26 1023.59 1023.59 1023.46 1023.46 1023.51 1023.53 1023.37 1023.09 1022.76 1022.43 1022.03 1021.48 1020.96 1020.50 1020.03 1019.58 1019.15 1018.54 1018.05 1017.57 1016.93 1016.20 1015.47 1014.76
1011.50 1011.54 1011.34 1011.32 1011.81 1012.23 1012.22 1012.59 1013.61 1014.42 1015.14 1015.81 1016.52 1016.96 1017.78 1018.47 1019.51 1019.96 1020.15 1020.13 1020.24 1020.64 1021.08 1021.27 1021.65 1022.19 1022.29 1022.53 1022.81 1023.03 1023.14 1023.50 1023.62 1023.65 1023.69 1023.69 1023.56 1023.34 1023.05 1022.80 1022.44 1022.06 1021.76 1021.38 1021.00 1020.64 1020.14 1019.61 1019.07 1018.47 1017.95 1017.47 1016.78 1016.00
1011.14 1011.17 1011.11 1011.20 1011.74 1012.09 1012.64 1013.20 1014.12 1015.08 1015.69 1016.37 1017.00 1017.54 1018.29 1019.07 1019.93 1020.52 1020.47 1020.54 1020.65 1020.84 1021.38 1021.75 1021.97 1022.12 1022.44 1022.77 1023.09 1023.35 1023.47 1023.64 1023.76 1023.85 1023.94 1023.97 1023.92 1023.68 1023.32 1023.01 1022.57 1022.53 1022.37 1022.20 1021.96 1021.68 1021.36 1021.01 1020.56 1019.98 1019.42 1018.80 1018.07 1017.24
Wind_Speed
15 14 13 11 11 10 9 10 7 7 7 8 8 8 9 9 7 3 3 3 1 3 7 5 3 4 1 2 3 5 5 2 4 5 3 4 2 2 2 3 4 4 3 3 3 3 7 1 6 3 6 9 15 19
15 14 13 12 11 10 9 10 8 7 7 8 8 8 9 9 8 2 2 2 2 3 7 3 15 17 14 12 4 3 3 1 3 1 2 2 3 3 2 4 1 3 8 4 6 6 3 5 11 15 10 11 18 18
17 15 12 14 12 10 9 10 8 7 7 7 8 9 10 9 8 5 3 2 2 3 5 3 6 3 4 13 8 4 3 5 3 4 2 2 4 2 2 5 2 4 2 4 3 4 7 10 15 9 7 14 13 18
16 15 13 14 12 10 10 9 8 8 7 7 8 9 10 9 9 7 2 2 1 2 3 8 3 7 4 6 10 14 7 1 1 2 3 3 3 3 3 5 6 6 3 5 7 9 7 13 9 10 8 12 18 18
15 16 14 15 12 9 11 9 9 8 8 9 9 10 10 9 9 6 3 4 5 3 3 7 11 3 4 5 10 10 14 6 3 3 4 3 2 3 3 4 3 3 5 3 4 14 7 11 9 12 10 17 17 16
18 16 15 15 10 9 12 10 8 7 8 10 10 11 9 8 5 2 2 1 3 3 2 4 5 6 6 6 5 3 7 4 4 2 3 3 1 2 2 3 8 4 6 12 6 10 6 10 11 7 12 17 15 14
20 16 13 13 10 10 13 10 8 7 9 10 13 11 10 8 2 3 3 1 6 2 2 4 5 6 6 5 3 2 3 3 3 3 4 3 2 4 2 2 17 22 14 15 6 6 6 10 12 9 13 14 15 12
22 19 16 15 12 12 13 10 7 7 10 12 14 13 12 9 4 4 3 10 7 2 3 3 5 6 5 5 4 0 2 3 3 2 1 2 0 1 2 17 20 20 17 5 9 8 7 12 9 12 14 11 12 12
23 21 19 17 13 13 12 9 5 6 10 14 15 8 4 1 3 2 7 8 3 2 1 0 3 5 4 4 3 4 1 2 1 2 2 1 3 5 9 18 20 19 14 10 9 9 11 14 13 14 15 11 13 12
24 22 20 17 13 13 11 8 4 6 11 15 1 2 3 2 4 8 2 2 2 1 1 3 1 5 1 3 4 4 1 2 1 2 2 2 4 7 16 19 17 17 15 12 7 14 15 15 12 14 15 11 10 11
24 23 21 17 14 13 12 9 4 5 5 1 3 2 1 6 2 2 2 3 2 2 3 3 4 4 2 3 4 3 3 2 2 3 2 3 4 18 22 22 20 18 13 11 5 5 10 12 10 13 14 12 12 12
25 23 21 18 15 14 15 11 6 1 1 3 2 2 0 2 1 2 3 2 3 3 3 3 5 5 4 1 3 3 3 2 2 5 2 3 6 18 21 23 22 20 16 8 5 7 10 11 8 12 12 12 12 11
25 23 20 17 14 17 15 12 8 5 2 1 2 2 2 1 1 4 4 1 1 2 3 2 4 1 4 2 2 3 3 3 4 5 4 2 11 17 19 18 21 21 20 6 5 6 10 11 9 12 11 11 11 12
24 22 20 17 16 18 15 12 8 4 2 3 4 3 4 3 4 4 4 4 4 2 3 1 2 1 2 5 2 4 4 3 4 5 4 6 17 18 18 17 16 20 19 9 7 7 8 9 8 9 10 11 12 13
24 20 18 15 20 18 14 11 9 2 3 3 3 3 4 2 1 2 2 1 1 1 1 2 1 2 3 3 3 3 6 4 3 1 4 10 16 16 18 19 18 17 15 9 6 5 6 7 8 8 10 11 12 13
21 14 9 21 19 17 14 9 3 2 2 3 2 2 1 4 1 1 1 2 0 0 2 2 2 3 4 2 5 4 3 2 4 4 8 10 15 15 17 17 16 14 12 9 7 4 4 6 6 5 7 9 10 11
18 3 19 22 20 15 14 3 3 4 3 3 3 2 2 3 3 3 3 2 1 3 2 2 3 2 1 4 3 1 3 3 5 8 8 12 14 15 16 17 18 17 12 13 11 7 3 4 4 7 9 8 8 8
3 10 23 24 15 9 1 2 2 3 4 3 3 3 2 2 4 1 1 1 2 2 2 2 3 4 2 3 2 3 2 4 4 6 8 11 12 13 12 15 16 16 14 13 14 11 9 6 6 4 5 7 7 8
11 14 25 25 8 4 4 4 3 3 4 2 3 3 3 4 3 3 2 3 3 3 4 3 4 2 2 1 1 3 3 3 6 8 7 9 10 12 12 13 15 16 16 15 13 11 9 9 5 4 4 4 4 4
22 24 23 15 2 2 3 2 2 2 3 3 3 3 4 3 3 3 3 3 3 3 4 3 2 2 3 1 1 2 3 4 5 6 8 8 7 10 10 10 9 12 11 12 11 14 11 10 10 10 5 4 4 4
16 10 11 3 0 0 1 1 2 3 3 3 3 3 3 2 2 2 2 1 4 2 2 2 3 3 2 2 2 3 3 3 3 3 4 8 9 7 7 7 9 8 9 10 10 11 12 9 10 10 8 3 3 3
5 9 4 1 1 1 2 3 2 1 3 3 3 3 4 3 3 2 3 4 2 2 3 3 3 4 3 2 0 4 3 4 6 4 4 6 8 7 7 7 8 7 8 9 9 10 9 9 10 10 9 5 3 3
10 3 3 2 2 2 4 2 2 3 4 4 2 4 2 2 2 3 3 1 2 3 3 3 4 4 3 1 5 5 5 4 4 4 6 4 6 6 6 7 7 7 8 8 9 8 9 12 11 11 9 8 3 3
5 4 5 5 4 4 2 3 1 3 3 3 4 4 3 3 2 2 2 2 3 2 3 5 4 3 2 4 3 2 4 3 3 3 4 4 6 7 6 7 6 6 8 8 7 8 9 9 12 10 10 9 9 5
4 4 5 3 3 3 4 3 3 2 3 3 4 3 3 3 3 3 4 3 4 4 4 4 3 2 4 3 1 2 3 2 2 2 4 4 4 5 6 6 6 6 8 8 9 10 10 9 9 10 10 9 10 11
4 4 5 5 3 4 5 4 5 5 4 3 2 3 2 3 4 4 4 6 4 5 4 5 5 4 2 2 3 0 3 2 1 2 2 3 4 4 6 8 8 7 8 8 9 11 11 10 10 14 11 12 10 10
3 3 3 2 1 1 2 2 2 3 4 4 4 3 3 3 5 3 1 2 4 4 5 5 5 4 5 4 2 0 1 2 1 2 1 1 2 3 3 6 9 8 10 11 10 11 12 12 11 12 11 10 9 8
2 1 3 3 2 1 2 3 4 5 4 3 4 4 7 5 3 3 3 3 4 6 5 4 4 4 5 4 4 2 3 3 3 2 0 2 2 1 5 4 5 14 9 9 10 10 10 10 10 11 11 10 9 8
2 1 2 3 2 1 3 4 4 1 2 3 4 3 3 3 2 1 1 3 5 7 6 6 5 7 6 5 4 4 3 3 5 6 6 4 4 4 7 7 6 8 8 9 11 10 13 11 11 10 11 9 8 8
2 3 2 2 3 5 2 2 3 3 4 3 4 4 3 3 4 3 4 4 5 5 5 7 6 7 6 5 4 3 3 3 2 3 1 2 3 6 6 7 8 8 7 8 9 10 12 9 9 9 10 9 9 9
3 3 2 3 3 2 4 7 6 4 4 5 6 4 4 4 3 5 4 3 6 7 8 6 4 4 5 5 4 4 1 2 3 3 2 1 3 4 5 6 6 6 7 8 8 9 10 9 10 11 12 14 16 13
3 4 3 3 3 3 1 4 3 3 2 3 2 2 3 4 3 3 4 3 4 5 4 5 6 3 3 4 4 3 5 3 3 3 3 3 3 5 5 4 5 6 7 8 9 9 11 12 10 12 13 16 16 16
2 3 3 2 3 3 3 4 3 3 3 2 3 2 2 3 3 2 1 2 2 5 6 4 4 4 6 6 6 4 5 4 5 3 3 3 4 6 5 5 5 6 7 6 7 7 9 9 9 12 12 13 14 16
Wind_Direction
236 235 239 244 249 254 266 275 279 290 310 319 325 329 330 330 333 63 263 206 181 257 275 247 242 200 306 172 189 277 356 355 337 20 332 358 329 293 308 253 193 191 153 266 265 256 279 55 309 254 268 291 304 297
235 234 235 242 242 249 260 267 266 277 301 310 317 321 320 319 318 341 275 224 197 227 252 252 262 249 224 222 143 265 206 169 253 12 329 332 325 339 12 292 80 299 189 212 195 245 238 304 291 279 269 276 303 300
224 232 227 244 241 243 254 261 260 273 289 300 306 313 310 309 304 291 228 249 243 275 294 327 239 239 198 226 194 182 270 201 240 211 229 256 274 252 272 256 313 291 171 247 311 261 268 313 289 269 258 291 311 307
216 222 219 233 234 235 248 252 257 269 283 294 300 306 303 305 305 296 239 215 174 273 291 280 300 297 227 179 186 210 239 338 200 202 235 232 253 191 249 259 267 262 254 255 251 279 295 270 271 281 283 298 312 302
215 219 213 232 226 229 242 241 245 263 283 292 299 297 301 307 306 295 246 227 209 161 284 287 306 251 282 239 226 207 216 219 249 236 237 232 245 233 254 255 250 201 239 272 312 307 306 305 321 313 304 314 309 305
207 211 215 217 213 225 241 232 239 260 287 288 298 294 301 314 324 27 307 139 190 171 273 296 281 291 302 299 318 161 184 166 219 227 245 240 230 189 264 249 253 262 315 301 278 297 276 305 299 311 310 314 315 314
196 196 216 219 214 239 243 234 241 265 281 297 293 292 291 286 202 200 210 141 169 131 254 287 306 287 308 321 336 71 130 186 183 221 225 255 235 205 254 295 335 320 311 308 337 320 318 325 312 327 321 322 315 312
192 195 203 202 208 236 243 230 231 268 291 300 295 293 281 259 233 266 243 214 195 274 270 318 286 329 6 308 319 263 178 215 212 258 246 238 115 266 345 336 319 334 324 346 357 325 276 312 323 338 333 319 329 339
191 196 198 191 206 226 234 218 221 278 304 299 304 292 85 110 193 225 133 120 157 224 273 186 319 281 353 286 275 315 249 254 186 241 244 110 67 38 321 321 326 329 329 315 308 330 327 341 331 349 335 344 344 342
188 191 188 191 206 223 216 186 209 289 298 304 250 174 195 162 289 124 176 198 183 205 212 244 195 268 48 325 298 334 269 278 268 242 103 97 110 7 341 337 330 325 321 329 332 340 336 331 333 345 341 341 342 342
186 185 184 189 207 229 179 163 196 314 311 111 189 191 317 320 85 72 196 230 145 237 207 241 242 263 284 227 254 223 293 286 272 45 280 70 8 344 343 337 333 328 320 313 303 343 320 317 323 341 339 354 354 352
180 177 179 186 207 219 159 160 180 176 193 170 135 82 335 139 110 194 202 157 210 244 208 215 245 215 274 214 277 327 286 313 326 303 29 38 350 341 337 335 332 333 320 312 0 344 304 326 347 348 347 356 354 351
173 173 176 191 219 164 158 166 187 206 107 123 161 148 123 167 123 213 180 241 257 212 235 271 312 275 343 22 296 297 350 347 305 26 26 58 332 334 333 334 332 329 333 342 347 348 1 355 0 360 357 1 359 2
169 169 179 192 186 158 158 172 186 170 152 198 174 162 184 188 233 185 161 184 232 187 280 164 269 2 341 20 344 322 350 1 42 21 338 340 335 327 326 329 335 332 328 328 344 360 1 3 6 1 1 1 3 9
163 170 182 192 158 155 161 173 176 153 195 215 153 196 202 194 72 141 122 74 276 133 54 61 22 88 15 35 13 355 14 36 50 330 292 329 322 323 327 331 330 330 328 328 333 345 3 6 10 7 6 12 14 5
155 166 177 151 151 150 160 163 152 172 229 220 210 145 36 84 353 58 105 255 328 43 105 52 70 66 46 51 42 17 64 10 299 300 326 321 321 326 326 327 324 325 328 340 325 315 7 15 13 7 17 20 23 20
153 128 155 150 145 149 161 136 178 208 225 199 231 149 117 121 162 183 178 240 254 75 87 91 68 152 33 46 44 57 152 257 316 325 324 319 322 328 326 330 338 346 356 3 352 343 10 360 7 24 25 9 14 14
96 148 147 140 136 133 127 211 237 209 217 215 165 175 141 106 123 122 241 348 76 97 83 101 108 66 64 123 270 272 349 338 300 311 312 316 332 335 340 335 339 351 352 4 3 2 356 1 7 8 9 3 11 5
137 142 145 145 153 148 152 179 208 218 209 161 104 92 100 104 61 71 76 49 73 94 96 56 77 106 175 169 74 357 324 296 317 318 317 340 335 343 341 342 348 354 355 356 1 3 358 14 9 359 348 357 10 7
133 143 152 156 127 144 154 183 171 181 176 172 97 105 99 107 111 82 62 47 58 59 56 70 129 147 119 135 80 244 271 322 324 325 345 345 343 348 350 350 353 347 347 353 5 10 360 1 3 355 345 358 17 14
96 129 139 124 351 300 286 179 179 192 133 123 123 112 95 83 87 80 84 22 63 77 121 203 113 110 129 159 223 248 309 342 336 337 332 337 336 347 347 353 356 359 2 355 354 354 4 357 342 340 331 347 30 37
105 143 106 212 233 187 269 236 172 120 94 130 109 102 114 155 159 161 140 64 96 179 170 145 136 125 141 191 55 41 4 10 346 318 299 333 342 347 350 356 357 5 5 353 346 346 345 348 343 339 350 349 40 41
134 112 76 153 186 140 259 114 149 182 131 172 97 105 128 123 154 121 75 134 216 207 178 131 136 131 152 221 89 39 25 20 0 352 350 2 337 339 341 355 1 5 1 351 340 343 343 342 340 341 346 351 348 16
114 150 168 178 164 200 178 190 162 113 100 134 146 111 142 135 152 69 152 204 228 184 138 150 138 142 83 87 53 5 345 356 345 340 3 353 344 343 343 344 356 12 3 336 343 342 341 342 341 346 345 352 358 342
119 198 139 197 204 158 172 144 161 128 151 156 124 125 159 132 108 169 187 223 167 177 179 156 159 126 123 121 89 340 341 29 31 50 356 9 335 332 345 343 344 14 1 344 348 346 342 337 338 340 337 342 349 339
174 195 158 182 162 175 178 153 168 165 141 146 129 120 118 113 154 219 213 178 175 165 174 163 156 128 101 137 142 203 314 325 132 85 339 358 7 5 341 341 341 349 3 346 340 341 336 334 331 333 327 330 326 329
152 201 206 246 180 155 125 87 112 123 164 151 157 138 123 148 221 233 148 182 142 171 157 144 141 140 143 140 120 137 296 0 136 155 174 23 12 4 347 340 336 323 330 339 344 341 333 331 328 324 320 314 312 318
217 203 162 187 176 181 151 145 154 176 172 156 114 166 172 186 200 194 193 169 124 111 101 101 127 123 125 122 117 112 36 5 16 32 344 343 340 345 350 324 322 323 333 340 342 340 336 328 319 320 320 317 311 311
189 222 151 152 184 193 214 194 190 135 95 129 113 112 110 55 12 323 102 113 116 107 100 100 81 103 93 84 76 63 52 38 58 51 32 347 336 328 344 336 340 349 348 335 336 342 339 334 327 333 330 325 327 322
187 165 158 200 187 205 185 119 81 67 36 76 100 98 74 36 346 3 94 98 107 118 126 129 126 128 132 126 120 81 34 39 70 112 105 334 302 307 324 334 340 343 345 341 339 340 348 346 349 355 358 357 353 348
166 164 212 185 205 102 111 110 82 55 36 51 36 69 101 133 57 33 33 37 112 119 119 112 103 126 136 142 138 132 126 343 44 68 103 2 331 333 338 338 331 332 343 347 351 355 354 359 9 3 3 4 359 357
163 194 208 155 105 119 73 58 80 79 73 68 88 78 62 65 74 355 354 26 80 89 85 116 123 130 125 113 112 107 108 106 45 34 44 16 352 351 346 338 336 358 3 7 7 4 4 7 6 9 5 6 7 5
159 177 208 130 124 141 120 104 78 85 80 93 92 87 71 100 133 199 29 48 150 142 136 129 120 111 114 101 110 114 104 93 73 73 90 49 23 11 359 352 357 14 14 13 13 10 9 6 10 7 7 4 4 7